Location: Trebic
(49.2170°N, 15.8830°E)
Time: 12:47:17
(UTC+02:00)

Vanguard 2 - All Passes

Search period start: 17 August 2019 00:00
Search period end: 27 August 2019 00:00
Orbit: 553 x 2938 km, 32.9° (Epoch: 16 August)

Date Brightness Start Highest point End Pass type
(mag) Time Alt. Az. Time Alt. Az. Time Alt. Az.
17 Aug - 14:14:50 10° S 14:20:33 19° SE 14:28:06 10° ESE daylight
17 Aug - 16:19:37 10° SW 16:28:31 35° SSE 16:41:31 10° ESE daylight
17 Aug - 18:27:06 10° WSW 18:38:05 37° S 18:52:52 10° SE daylight
17 Aug - 20:36:54 10° WSW 20:48:06 26° SSW 21:01:02 10° SSE visible
18 Aug - 14:31:32 10° SSW 14:37:50 23° SSE 14:46:34 10° ESE daylight
18 Aug - 16:37:07 10° SW 16:46:07 36° S 16:59:18 10° ESE daylight
18 Aug - 18:44:59 10° WSW 18:55:47 34° SSW 19:10:04 10° SE daylight
18 Aug - 20:55:39 10° WSW 21:05:36 21° SSW 21:16:54 10° S visible
19 Aug - 14:48:34 10° SSW 14:55:14 26° SSE 15:04:46 10° ESE daylight
19 Aug - 16:54:45 10° WSW 17:03:46 36° S 17:16:58 10° ESE daylight
19 Aug - 19:03:02 10° WSW 19:13:27 30° SSW 19:27:00 10° SE daylight
19 Aug - 21:15:07 10° WSW 21:23:05 16° SW 21:31:51 10° S visible
20 Aug - 13:03:09 10° SSE 13:05:32 12° SE 13:08:13 10° ESE daylight
20 Aug - 15:05:49 10° SW 15:12:41 29° SSE 15:22:47 10° ESE daylight
20 Aug - 17:12:29 10° WSW 17:21:28 35° S 17:34:29 10° SE daylight
20 Aug - 19:21:15 10° WSW 19:31:06 26° SSW 19:43:35 10° SSE daylight
20 Aug - 21:36:45 10° SW 21:40:31 11° SW 21:44:26 10° SSW visible
21 Aug - 13:18:55 10° S 13:22:47 15° SE 13:27:36 10° ESE daylight
21 Aug - 15:23:14 10° SW 15:30:15 30° SSE 15:40:40 10° ESE daylight
21 Aug - 17:30:19 10° WSW 17:39:10 32° S 17:51:47 10° SE daylight
21 Aug - 19:39:49 10° WSW 19:48:44 21° SSW 19:59:40 10° SSE daylight
22 Aug - 13:35:33 10° SSW 13:40:06 18° SSE 13:46:09 10° ESE daylight
22 Aug - 15:40:48 10° SW 15:47:51 31° S 15:58:24 10° ESE daylight
22 Aug - 17:48:18 10° WSW 17:56:53 29° SSW 18:08:50 10° SE daylight
22 Aug - 19:58:59 10° WSW 20:06:21 17° SSW 20:14:58 10° S daylight
23 Aug - 13:52:35 10° SSW 13:57:32 21° SSE 14:04:21 10° ESE daylight
23 Aug - 15:58:28 10° SW 16:05:32 30° S 16:15:59 10° SE daylight
23 Aug - 18:06:27 10° WSW 18:14:36 25° SSW 18:25:33 10° SSE daylight
23 Aug - 20:19:41 10° SW 20:23:56 12° SW 20:28:32 10° SSW visible
24 Aug - 14:09:51 10° SSW 14:15:02 23° SSE 14:22:21 10° ESE daylight
24 Aug - 16:16:15 10° WSW 16:23:13 28° S 16:33:23 10° SE daylight
24 Aug - 18:24:55 10° WSW 18:32:18 20° SSW 18:41:50 10° SSE daylight
25 Aug - 12:23:46 10° SSE 12:25:27 11° SSE 12:27:18 10° SE daylight
25 Aug - 14:27:19 10° SW 14:32:36 24° SSE 14:40:10 10° ESE daylight
25 Aug - 16:34:11 10° WSW 16:40:57 25° S 16:50:33 10° SE daylight
25 Aug - 18:43:56 10° WSW 18:50:00 16° SSW 18:57:22 10° S daylight
26 Aug - 12:40:01 10° S 12:42:51 14° SSE 12:46:15 10° SE daylight
26 Aug - 14:44:55 10° SW 14:50:14 24° S 14:57:49 10° SE daylight
26 Aug - 16:52:19 10° WSW 16:58:41 22° SSW 17:07:24 10° SSE daylight
26 Aug - 19:04:34 10° SW 19:07:41 11° SSW 19:11:05 10° SSW daylight
